KLM1199 KSFO-KLAX

Flight info

Callsign KLM1199
Flight time 1h 0m
Altitude 31000
Route WESLA5 SUSEY EBAYE BURGL IRNMN2
Aircraft B77W/H-SDE1E2E3FGHIJ2J3J4J5M1RWXY/LB1D1

Departure

Time 2026-05-07 00:39
Airport San Francisco International Airport (KSFO)

Arrival

Time 2026-05-07 01:39
Airport Los Angeles International Airport (KLAX)
Time Latitude Longitude Altitude Speed Heading
2026-05-07 00:27 37.63517 -122.38920 19 ft 0 kts
2026-05-07 00:29 37.63507 -122.38920 20 ft 3 kts 348°
2026-05-07 00:30 37.63488 -122.38870 23 ft 0 kts 247°
2026-05-07 00:32 37.63468 -122.38917 22 ft 17 kts 239°
2026-05-07 00:32 37.63406 -122.39054 26 ft 18 kts 244°
2026-05-07 00:32 37.63327 -122.39168 22 ft 18 kts 197°
2026-05-07 00:32 37.63209 -122.39147 24 ft 13 kts 183°
2026-05-07 00:33 37.63175 -122.39191 26 ft 7 kts 242°
2026-05-07 00:33 37.63096 -122.39255 28 ft 20 kts 171°
2026-05-07 00:33 37.62940 -122.39134 28 ft 24 kts 111°
2026-05-07 00:33 37.62881 -122.38985 28 ft 19 kts 117°
2026-05-07 00:34 37.62820 -122.38839 29 ft 19 kts 118°
2026-05-07 00:34 37.62758 -122.38693 31 ft 20 kts 118°
2026-05-07 00:34 37.62689 -122.38531 27 ft 22 kts 118°
2026-05-07 00:34 37.62615 -122.38359 25 ft 23 kts 118°
2026-05-07 00:35 37.62539 -122.38177 24 ft 24 kts 116°
2026-05-07 00:35 37.62466 -122.37993 27 ft 24 kts 116°
2026-05-07 00:35 37.62389 -122.37811 26 ft 24 kts 118°
2026-05-07 00:35 37.62311 -122.37629 28 ft 24 kts 118°
2026-05-07 00:36 37.62233 -122.37450 25 ft 24 kts 118°
2026-05-07 00:36 37.62149 -122.37250 18 ft 26 kts 117°
2026-05-07 00:36 37.62068 -122.37052 20 ft 26 kts 117°
2026-05-07 00:36 37.61986 -122.36851 25 ft 26 kts 117°
2026-05-07 00:37 37.61903 -122.36651 28 ft 26 kts 119°
2026-05-07 00:37 37.61816 -122.36452 28 ft 26 kts 118°
2026-05-07 00:37 37.61732 -122.36252 25 ft 26 kts 117°
2026-05-07 00:37 37.61649 -122.36051 24 ft 26 kts 117°
2026-05-07 00:38 37.61571 -122.35859 27 ft 19 kts 117°
2026-05-07 00:38 37.61505 -122.35716 30 ft 20 kts 130°
2026-05-07 00:38 37.61387 -122.35730 29 ft 17 kts 242°
2026-05-07 00:38 37.61412 -122.35848 23 ft 0 kts 300°
2026-05-07 00:39 37.61423 -122.35873 25 ft 20 kts 300°
2026-05-07 00:39 37.61628 -122.36373 25 ft 106 kts 297°
2026-05-07 00:39 37.62093 -122.37467 59 ft 169 kts 298°
2026-05-07 00:39 37.62677 -122.38712 1010 ft 158 kts 299°
2026-05-07 00:40 37.63255 -122.39955 1794 ft 170 kts 298°
2026-05-07 00:40 37.63821 -122.41384 2207 ft 198 kts 295°
2026-05-07 00:40 37.64462 -122.43075 2552 ft 226 kts 296°
2026-05-07 00:40 37.64931 -122.44268 2928 ft 232 kts 297°
2026-05-07 00:41 37.65902 -122.46674 2997 ft 229 kts 298°
2026-05-07 00:41 37.66598 -122.48447 2989 ft 223 kts 291°
2026-05-07 00:41 37.66721 -122.50458 3011 ft 244 kts 260°
2026-05-07 00:41 37.66305 -122.51806 3004 ft 246 kts 239°
2026-05-07 00:42 37.65050 -122.53278 3008 ft 251 kts 208°
2026-05-07 00:42 37.63365 -122.53690 2997 ft 250 kts 174°
2026-05-07 00:42 37.61670 -122.53100 3029 ft 260 kts 161°
2026-05-07 00:42 37.59958 -122.52329 3032 ft 263 kts 160°
2026-05-07 00:43 37.58265 -122.51564 3023 ft 254 kts 161°
2026-05-07 00:43 37.56579 -122.50807 3020 ft 256 kts 161°
2026-05-07 00:43 37.54894 -122.50056 3039 ft 263 kts 161°
2026-05-07 00:43 37.53183 -122.49303 3021 ft 258 kts 161°
2026-05-07 00:44 37.51491 -122.48560 3032 ft 259 kts 161°
2026-05-07 00:44 37.49772 -122.47803 3030 ft 260 kts 159°
2026-05-07 00:44 37.48270 -122.46594 3068 ft 259 kts 133°
2026-05-07 00:44 37.47027 -122.44863 3691 ft 269 kts 131°
2026-05-07 00:45 37.45752 -122.43108 4635 ft 276 kts 130°
2026-05-07 00:45 37.44433 -122.41302 5558 ft 281 kts 130°
2026-05-07 00:45 37.43118 -122.39506 6671 ft 278 kts 130°
2026-05-07 00:45 37.41798 -122.37705 7542 ft 284 kts 130°
2026-05-07 00:46 37.40443 -122.35857 8323 ft 290 kts 130°
2026-05-07 00:46 37.39072 -122.33990 9271 ft 292 kts 130°
2026-05-07 00:46 37.37677 -122.32094 10141 ft 297 kts 130°
2026-05-07 00:46 37.36250 -122.30155 10724 ft 313 kts 131°
2026-05-07 00:47 37.34706 -122.28053 10980 ft 342 kts 131°
2026-05-07 00:47 37.33023 -122.25770 11257 ft 368 kts 131°
2026-05-07 00:47 37.31279 -122.23407 12079 ft 376 kts 131°
2026-05-07 00:47 37.29494 -122.20993 13285 ft 375 kts 131°
2026-05-07 00:48 37.27706 -122.18577 14323 ft 381 kts 131°
2026-05-07 00:48 37.25882 -122.16114 15109 ft 390 kts 131°
2026-05-07 00:48 37.24017 -122.13595 16043 ft 396 kts 131°
2026-05-07 00:48 37.22130 -122.11046 16969 ft 402 kts 131°
2026-05-07 00:49 37.20204 -122.08449 17844 ft 410 kts 131°
2026-05-07 00:49 37.18244 -122.05809 18674 ft 417 kts 131°
2026-05-07 00:49 37.16248 -122.03124 19440 ft 424 kts 131°
2026-05-07 00:49 37.14217 -122.00393 20220 ft 430 kts 131°
2026-05-07 00:50 37.12164 -121.97636 21018 ft 436 kts 131°
2026-05-07 00:50 37.10083 -121.94841 21780 ft 442 kts 131°
2026-05-07 00:50 37.07972 -121.92010 22536 ft 448 kts 131°
2026-05-07 00:50 37.05856 -121.89174 23247 ft 454 kts 131°
2026-05-07 00:51 37.03678 -121.86258 23897 ft 461 kts 131°
2026-05-07 00:51 37.01472 -121.83306 24537 ft 465 kts 131°
2026-05-07 00:51 36.99253 -121.80342 25232 ft 468 kts 131°
2026-05-07 00:51 36.97020 -121.77361 25884 ft 472 kts 131°
2026-05-07 00:52 36.94766 -121.74354 26524 ft 476 kts 131°
2026-05-07 00:52 36.92487 -121.71316 27115 ft 481 kts 131°
2026-05-07 00:52 36.90190 -121.68257 27692 ft 485 kts 131°
2026-05-07 00:52 36.87865 -121.65164 28262 ft 489 kts 131°
2026-05-07 00:53 36.85523 -121.62051 28849 ft 493 kts 131°
2026-05-07 00:53 36.83163 -121.58917 29346 ft 497 kts 131°
2026-05-07 00:53 36.80787 -121.55766 29855 ft 501 kts 131°
2026-05-07 00:53 36.78393 -121.52592 30395 ft 502 kts 131°
2026-05-07 00:54 36.75998 -121.49423 30972 ft 501 kts 131°
2026-05-07 00:54 36.73610 -121.46266 31598 ft 498 kts 131°
2026-05-07 00:54 36.71242 -121.43138 32194 ft 496 kts 131°
2026-05-07 00:54 36.68871 -121.40009 32783 ft 495 kts 131°
2026-05-07 00:55 36.66510 -121.36895 33309 ft 494 kts 131°
2026-05-07 00:55 36.64149 -121.33783 33835 ft 494 kts 131°
2026-05-07 00:55 36.61793 -121.30680 34349 ft 492 kts 131°
2026-05-07 00:55 36.59469 -121.27624 34811 ft 491 kts 131°
2026-05-07 00:56 36.57090 -121.24498 35161 ft 492 kts 131°
2026-05-07 00:56 36.54767 -121.21448 35123 ft 492 kts 131°
2026-05-07 00:56 36.50069 -121.15289 35129 ft 489 kts 131°
2026-05-07 00:57 36.45378 -121.09148 35128 ft 490 kts 131°
2026-05-07 00:57 36.40733 -121.02957 35122 ft 489 kts 129°
2026-05-07 00:58 36.36302 -120.96536 35112 ft 489 kts 128°
2026-05-07 00:58 36.31906 -120.90101 35107 ft 489 kts 128°
2026-05-07 00:59 36.25258 -120.80533 35101 ft 488 kts 128°
2026-05-07 01:00 36.20809 -120.74180 35105 ft 488 kts 128°
2026-05-07 01:00 36.16385 -120.67875 35106 ft 488 kts 128°
2026-05-07 01:01 36.11920 -120.61517 35098 ft 488 kts 128°
2026-05-07 01:01 36.07462 -120.55180 35102 ft 488 kts 128°
2026-05-07 01:02 36.03020 -120.48876 35094 ft 488 kts 128°
2026-05-07 01:02 35.98557 -120.42556 35099 ft 488 kts 128°
2026-05-07 01:03 35.94095 -120.36247 35103 ft 487 kts 128°
2026-05-07 01:03 35.89632 -120.29966 35080 ft 486 kts 129°
2026-05-07 01:04 35.84582 -120.24385 35101 ft 490 kts 141°
2026-05-07 01:04 35.78803 -120.19885 35102 ft 492 kts 147°
2026-05-07 01:05 35.72924 -120.15561 35086 ft 492 kts 146°
2026-05-07 01:05 35.67083 -120.11171 35107 ft 492 kts 146°
2026-05-07 01:06 35.61251 -120.06767 35086 ft 492 kts 146°
2026-05-07 01:06 35.55409 -120.02354 35099 ft 493 kts 146°
2026-05-07 01:07 35.49568 -119.97951 35092 ft 493 kts 146°
2026-05-07 01:07 35.43720 -119.93552 35097 ft 493 kts 146°
2026-05-07 01:08 35.37897 -119.89179 35087 ft 493 kts 146°
2026-05-07 01:08 35.32042 -119.84788 35083 ft 493 kts 146°
2026-05-07 01:08 35.29105 -119.82587 34586 ft 500 kts 145°
2026-05-07 01:09 35.26208 -119.80205 33860 ft 501 kts 141°
2026-05-07 01:09 35.23448 -119.77652 33272 ft 494 kts 139°
2026-05-07 01:09 35.20770 -119.75059 32710 ft 488 kts 138°
2026-05-07 01:09 35.18125 -119.72484 32173 ft 483 kts 139°
2026-05-07 01:10 35.15497 -119.69956 31637 ft 478 kts 139°
2026-05-07 01:10 35.12880 -119.67478 31127 ft 474 kts 139°
2026-05-07 01:10 35.10275 -119.65038 30606 ft 470 kts 140°
2026-05-07 01:10 35.07680 -119.62623 30080 ft 467 kts 140°
2026-05-07 01:11 35.05105 -119.60233 29465 ft 463 kts 140°
2026-05-07 01:11 35.02551 -119.57863 28907 ft 460 kts 140°
2026-05-07 01:11 35.00013 -119.55508 28377 ft 456 kts 140°
2026-05-07 01:11 34.97528 -119.53201 27848 ft 452 kts 140°
2026-05-07 01:12 34.95036 -119.50888 27327 ft 448 kts 140°
2026-05-07 01:12 34.92563 -119.48597 26818 ft 445 kts 140°
2026-05-07 01:12 34.90103 -119.46333 26305 ft 442 kts 140°
2026-05-07 01:12 34.87634 -119.44115 25798 ft 440 kts 141°
2026-05-07 01:13 34.85167 -119.41921 25292 ft 437 kts 141°
2026-05-07 01:13 34.82717 -119.39742 24795 ft 435 kts 141°
2026-05-07 01:13 34.80278 -119.37567 24274 ft 433 kts 140°
2026-05-07 01:13 34.77851 -119.35398 23771 ft 432 kts 140°
2026-05-07 01:14 34.75448 -119.33254 23468 ft 423 kts 140°
2026-05-07 01:14 34.73088 -119.31165 22992 ft 419 kts 141°
2026-05-07 01:14 34.70727 -119.29104 22498 ft 416 kts 141°
2026-05-07 01:14 34.68388 -119.27067 22036 ft 413 kts 141°
2026-05-07 01:15 34.66055 -119.25033 21555 ft 410 kts 141°
2026-05-07 01:15 34.63737 -119.23017 21075 ft 408 kts 141°
2026-05-07 01:15 34.61430 -119.21026 20621 ft 406 kts 141°
2026-05-07 01:15 34.59148 -119.19064 20116 ft 398 kts 141°
2026-05-07 01:16 34.56896 -119.17124 19708 ft 400 kts 141°
2026-05-07 01:16 34.54617 -119.15138 19289 ft 402 kts 141°
2026-05-07 01:16 34.52375 -119.13151 18747 ft 398 kts 140°
2026-05-07 01:16 34.50164 -119.11183 18258 ft 389 kts 140°
2026-05-07 01:17 34.48035 -119.09295 17755 ft 380 kts 141°
2026-05-07 01:17 34.45926 -119.07430 17243 ft 369 kts 140°
2026-05-07 01:17 34.43880 -119.05624 16866 ft 359 kts 141°
2026-05-07 01:17 34.41867 -119.03871 16449 ft 352 kts 141°
2026-05-07 01:18 34.39845 -119.02121 16086 ft 362 kts 141°
2026-05-07 01:18 34.37783 -119.00335 15654 ft 366 kts 141°
2026-05-07 01:18 34.35707 -118.98541 15241 ft 365 kts 141°
2026-05-07 01:18 34.33651 -118.96756 14814 ft 362 kts 140°
2026-05-07 01:19 34.31643 -118.94943 14423 ft 358 kts 139°
2026-05-07 01:19 34.29693 -118.93158 14009 ft 355 kts 139°
2026-05-07 01:19 34.27722 -118.91361 13563 ft 353 kts 139°
2026-05-07 01:19 34.25768 -118.89588 13138 ft 351 kts 140°
2026-05-07 01:20 34.23831 -118.87818 12722 ft 347 kts 139°
2026-05-07 01:20 34.21921 -118.86060 12411 ft 341 kts 139°
2026-05-07 01:20 34.20068 -118.84357 12274 ft 327 kts 139°
2026-05-07 01:20 34.18283 -118.82720 12168 ft 318 kts 139°
2026-05-07 01:21 34.16550 -118.81129 12070 ft 307 kts 138°
2026-05-07 01:21 34.14933 -118.79479 11836 ft 304 kts 134°
2026-05-07 01:21 34.13373 -118.77759 11523 ft 304 kts 133°
2026-05-07 01:21 34.11823 -118.76037 11219 ft 301 kts 133°
2026-05-07 01:22 34.10286 -118.74338 10934 ft 298 kts 133°
2026-05-07 01:22 34.08752 -118.72656 10607 ft 297 kts 134°
2026-05-07 01:22 34.07220 -118.70988 10318 ft 297 kts 134°
2026-05-07 01:22 34.05690 -118.69325 10020 ft 295 kts 133°
2026-05-07 01:23 34.04191 -118.67693 9659 ft 292 kts 132°
2026-05-07 01:23 34.03044 -118.65753 9188 ft 282 kts 107°
2026-05-07 01:23 34.02648 -118.63474 8827 ft 277 kts 92°
2026-05-07 01:23 34.02450 -118.61165 8425 ft 278 kts 93°
2026-05-07 01:24 34.02243 -118.58847 8092 ft 278 kts 93°
2026-05-07 01:24 34.02100 -118.57284 8003 ft 278 kts 94°
2026-05-07 01:24 34.01884 -118.54955 8011 ft 280 kts 94°
2026-05-07 01:24 34.01667 -118.52619 7832 ft 279 kts 94°
2026-05-07 01:25 34.01450 -118.50306 7546 ft 278 kts 94°
2026-05-07 01:25 34.01232 -118.47995 7252 ft 277 kts 94°
2026-05-07 01:25 34.01044 -118.45709 7049 ft 270 kts 88°
2026-05-07 01:25 34.01282 -118.43501 6809 ft 262 kts 76°
2026-05-07 01:26 34.01687 -118.41378 6587 ft 258 kts 75°
2026-05-07 01:26 34.02079 -118.39305 6358 ft 254 kts 75°
2026-05-07 01:26 34.02452 -118.37238 6134 ft 250 kts 76°
2026-05-07 01:26 34.02801 -118.35218 6054 ft 245 kts 78°
2026-05-07 01:27 34.03030 -118.33183 6008 ft 244 kts 81°
2026-05-07 01:27 34.03223 -118.31161 5995 ft 240 kts 81°
2026-05-07 01:27 34.03419 -118.29161 5901 ft 244 kts 79°
2026-05-07 01:27 34.03687 -118.27101 5588 ft 250 kts 78°
2026-05-07 01:28 34.03775 -118.25015 5300 ft 250 kts 94°
2026-05-07 01:28 34.03348 -118.22984 5006 ft 251 kts 110°
2026-05-07 01:28 34.02832 -118.20980 4561 ft 252 kts 97°
2026-05-07 01:28 34.02794 -118.18863 4134 ft 254 kts 84°
2026-05-07 01:29 34.02982 -118.16740 3799 ft 254 kts 82°
2026-05-07 01:29 34.03196 -118.14635 3580 ft 246 kts 85°
2026-05-07 01:29 34.03067 -118.12651 3567 ft 231 kts 104°
2026-05-07 01:29 34.02431 -118.10881 3604 ft 237 kts 122°
2026-05-07 01:30 34.01339 -118.09400 3575 ft 235 kts 141°
2026-05-07 01:30 33.99934 -118.08473 3577 ft 227 kts 167°
2026-05-07 01:30 33.98403 -118.08569 3577 ft 221 kts 203°
2026-05-07 01:30 33.97238 -118.09672 3589 ft 216 kts 239°
2026-05-07 01:31 33.96763 -118.11345 3601 ft 210 kts 266°
2026-05-07 01:31 33.96914 -118.13086 3589 ft 209 kts 290°
2026-05-07 01:31 33.97650 -118.14581 3596 ft 208 kts 314°
2026-05-07 01:31 33.98832 -118.15564 3590 ft 208 kts 338°
2026-05-07 01:32 34.00255 -118.15860 3588 ft 209 kts
2026-05-07 01:32 34.01655 -118.15407 3588 ft 211 kts 27°
2026-05-07 01:32 34.02784 -118.14283 3590 ft 213 kts 51°
2026-05-07 01:32 34.03435 -118.12681 3591 ft 215 kts 76°
2026-05-07 01:33 34.03462 -118.10893 3577 ft 217 kts 105°
2026-05-07 01:33 34.02668 -118.09402 3582 ft 217 kts 142°
2026-05-07 01:33 34.01295 -118.08749 3592 ft 215 kts 179°
2026-05-07 01:33 33.99869 -118.09163 3601 ft 212 kts 208°
2026-05-07 01:34 33.98660 -118.10191 3593 ft 215 kts 225°
2026-05-07 01:34 33.97718 -118.11586 3593 ft 215 kts 240°
2026-05-07 01:34 33.97041 -118.13179 3590 ft 213 kts 249°
2026-05-07 01:34 33.96529 -118.14852 3579 ft 212 kts 254°
2026-05-07 01:35 33.96156 -118.16505 3589 ft 195 kts 257°
2026-05-07 01:35 33.95854 -118.18075 3371 ft 189 kts 260°
2026-05-07 01:35 33.95651 -118.19589 3126 ft 177 kts 263°
2026-05-07 01:35 33.95494 -118.21041 2910 ft 174 kts 263°
2026-05-07 01:36 33.95343 -118.22497 2694 ft 175 kts 263°
2026-05-07 01:36 33.95196 -118.23928 2467 ft 173 kts 263°
2026-05-07 01:36 33.95050 -118.25375 2220 ft 170 kts 264°
2026-05-07 01:36 33.94907 -118.26778 2012 ft 167 kts 264°
2026-05-07 01:37 33.94771 -118.28116 1790 ft 158 kts 263°
2026-05-07 01:37 33.94642 -118.29383 1581 ft 147 kts 264°
2026-05-07 01:37 33.94522 -118.30556 1383 ft 137 kts 264°
2026-05-07 01:37 33.94402 -118.31741 1226 ft 149 kts 265°
2026-05-07 01:38 33.94276 -118.32978 1007 ft 145 kts 263°
2026-05-07 01:38 33.94159 -118.34113 820 ft 143 kts 264°
2026-05-07 01:38 33.94040 -118.35282 645 ft 139 kts 264°
2026-05-07 01:38 33.93920 -118.36465 462 ft 147 kts 264°
2026-05-07 01:39 33.93795 -118.37690 257 ft 144 kts 262°
2026-05-07 01:39 33.93683 -118.38832 138 ft 128 kts 263°
2026-05-07 01:39 33.93588 -118.39728 131 ft 78 kts 261°
2026-05-07 01:39 33.93533 -118.40104 127 ft 25 kts 252°
2026-05-07 01:40 33.93463 -118.40238 127 ft 7 kts 235°
2026-05-07 01:40 33.93426 -118.40282 125 ft 3 kts 214°
2026-05-07 01:40 33.93398 -118.40298 126 ft 10 kts 196°
2026-05-07 01:40 33.93336 -118.40297 126 ft 9 kts 174°
2026-05-07 01:41 33.93326 -118.40295 128 ft 0 kts 172°
2026-05-07 01:41 33.93324 -118.40295 128 ft 0 kts 172°